User: anonymous   Login
Location: Unspecified
(0.0000°N, 0.0000°E)
Time: 18:26:44
(UTC+00:00)
Language:

Shinsei - Orbit

View from above orbital plane
View from above orbital plane
View from above satellite
View from above satellite

Ground track
Ground track

The orbit data is extracted from the following two-line orbital elements,

1  5485U 71080A   17080.08967504 +.00000032 +00000-0 +38793-4 0  9992
2  5485 032.0538 305.0477 0639800 046.1598 319.0102 12.74119256118745
Epoch (UTC): 21 March 2017 02:09:07
Eccentricity: 0.0639800
inclination: 32.0538°
perigee height: 870 km
apogee height: 1860 km
right ascension of ascending node: 305.0477°
argument of perigee: 46.1598°
revolutions per day: 12.74119256
mean anomaly at epoch: 319.0102°
orbit number at epoch: 11874

The dashed part of the orbit path shows where the satellite is in the earth's shadow,  

DLR